DELTA 1 DEB, 10646

Orbit data source: Space-Track

DELTA 1 DEB, 10646 is space debris in SSO originally from a launch on Thu, 29 Jul 1976 UTC launched from the Air Force Western Test Range (AFWTR). Debris objects in space refer to the collection of defunct objects orbiting the Earth. Examples of debris include non-operational satellites, rocket bodies, and fragments generated from explosions, collisions, or faulty payload assembly.

Loading next visibility...
Identifier
10646, 1976-077G
Orbit
SSO
Country
Flag of USUS
Related business
Manufacturer
Unknown
Mission
Spacecraft
Bus & Motor
Unknown
Mass
Unknown
Launch date (UTC)
1976-07-29 (50 years ago)
Launch vehicle
Unknown
Launch site
Air Force Western Test Range (AFWTR)
Object type
Payload
Rocket body
Debris
Shape & HBR
Unknown shape, 0.4 m
Radar Cross Section
Medium (>0.1 m² and <1 m²)

Expand to show TLE details & history
Last TLE update: 8 hours ago

TLE from 8 hours ago
0 DELTA 1 DEB
1 10646U 76077G   26119.61067869 -.00000014  00000-0  29975-3 0  9997
2 10646 102.6537  71.7487 0144254  88.6408  84.4149 12.14465386206436
Epoch: 2026-04-29T14:39Z
TLE epoch observation values (Epoch: 2026-04-29T14:39:22.638Z)
Latitude
5.09357°
Longitude
175.47633°
Altitude
1,609.138 km
Speed
7.07 km/s
True Right ascension
16h 51m 33s
True Declination
5° 03' 59"
Sunlit
Object was in full shadow at epoch
Visualization orbit readout
Latitude
Unknown
Longitude
Unknown
Altitude
Unknown
Speed
Unknown
Apparent Right ascension
Unknown
Apparent Declination
Unknown
Sunlit
N/A
Visualization observer readout
Local Sidereal Time
05:43:57
Azimuth
Unknown
Elevation
Unknown
Doppler factor
Unknown
Orbital elements
Apogee altitude
1,729.681 km
Perigee altitude
1,499.091 km
Semi-major axis
7,992.523 km
Eccentricity
0.01443
Inclination
102.6537°
RAAN
71.7487°
Arg. of periapsis
88.6408°
True anomaly
86.06275°
Mean anomaly
84.4149°
Eccentric anomaly
85.23856°
Mean motion
3.03751 °/min
Orbital period
118.52 mins
BSTAR
0.00029975
Loading maneuver chart data...
Computing Atmospheric mass density...
Loading historical data...
Loading historical data...
Loading historical data...
Loading historical data...
Loading historical data...
Loading historical data...
Loading historical data...

Documentation

Showing up to 5 results
|